Terminal Aerodrome Forecast
Issued by NWS

Home | Current Version | Previous Version | Text Only | Print | Product List | Glossary On
Versions: 1 2 3 4 5 6 7 8 9 10 11 12
000
FTUS45 KGJT 250520
TAFVEL
TAF
KVEL 250520Z 2506/2606 29005KT P6SM SKC
     FM251400 VRB03KT P6SM SKC
     FM252000 12004KT P6SM SKC
     FM260100 29005KT P6SM SKC=

USA.gov is the U.S. government's official web portal to all federal, state and local government web resources and services.